DW6221 Weather Reports


time (UTC)temp
C
wind
direction
speed
KPH
gust
KPH
rain 1hr
cm
rain 24hr
cm
rain mn
cm
humidity
%
barometer
mb
20260504044551 2 138 0.0 0.0 0.00 0.00 0.00 88 1016.4
20260504043057 2 138 0.0 0.0 0.00 0.00 0.00 88 1016.3
20260504041546 2 138 0.0 0.0 0.00 0.00 0.00 87 1016.3
20260504040043 3 138 0.0 0.0 0.00 0.00 0.00 85 1016.2
20260504034542 3 138 0.0 0.0 0.00 0.00 0.00 85 1016.1
20260504033040 3 138 0.0 0.0 0.00 0.00 0.00 82 1016.0
20260504031540 3 138 0.0 0.0 0.00 0.00 0.00 83 1015.8
20260504030038 4 138 0.0 0.0 0.00 0.00 0.00 79 1015.7
20260504024537 5 138 0.0 0.0 0.00 0.00 0.00 79 1015.8
20260504023039 5 138 0.0 0.0 0.00 0.00 0.00 77 1015.6
20260504021537 5 138 0.0 0.0 0.00 0.00 0.00 76 1015.6
20260504020053 6 138 0.0 0.0 0.00 0.00 0.00 73 1015.5
20260504014553 6 138 0.0 0.0 0.00 0.00 0.00 71 1015.5
20260504013044 7 138 0.0 0.0 0.00 0.00 0.00 72 1015.5
20260504011536 7 138 0.0 0.0 0.00 0.00 0.00 69 1015.1
20260504010039 8 138 0.0 0.0 0.00 0.00 0.00 65 1015.1
20260504004543 10 138 0.0 0.0 0.00 0.00 0.00 56 1014.9
20260504003034 10 138 0.0 0.0 0.00 0.00 0.00 59 1014.7
20260504001545 11 138 0.0 0.0 0.00 0.00 0.00 46 1014.7
20260504000032 12 138 0.0 0.0 0.00 0.00 0.00 44 1014.5
20260503234531 12 137 0.0 1.6 0.00 0.00 0.00 46 1014.4
20260503233038 13 134 0.0 0.0 0.00 0.00 0.00 40 1014.1
20260503231531 13 61 0.0 3.2 0.00 0.00 0.00 41 1014.0
20260503230029 13 325 0.0 11.3 0.00 0.00 0.00 38 1014.1
20260503224529 14 257 3.2 11.3 0.00 0.00 0.00 38 1014.3
20260503223029 14 70 0.0 8.0 0.00 0.00 0.00 39 1014.1
20260503221528 14 333 0.0 16.1 0.00 0.00 0.00 36 1014.0
20260503220040 14 10 1.6 12.9 0.00 0.00 0.00 36 1014.3
20260503214526 14 15 1.6 19.3 0.00 0.00 0.00 36 1014.0
20260503213025 15 306 4.8 12.9 0.00 0.00 0.00 36 1014.0
20260503211524 14 9 1.6 25.7 0.00 0.00 0.00 36 1014.0
20260503210022 14 348 1.6 9.7 0.00 0.00 0.00 35 1014.1
20260503204520 14 63 0.0 16.1 0.00 0.00 0.00 34 1014.0
20260503203041 14 27 1.6 29.0 0.00 0.00 0.00 33 1014.0
20260503201519 14 332 0.0 12.9 0.00 0.00 0.00 34 1014.2
20260503200017 14 49 4.8 16.1 0.00 0.00 0.00 33 1014.5
20260503194531 14 267 6.4 19.3 0.00 0.00 0.00 34 1014.7
20260503193014 14 215 6.4 22.5 0.00 0.00 0.00 35 1014.9
20260503191510 13 330 6.4 24.1 0.00 0.00 0.00 35 1015.0
20260503190008 14 22 4.8 35.4 0.00 0.00 0.00 35 1015.2
20260503184504 13 26 8.0 24.1 0.00 0.00 0.00 36 1015.2
20260503183001 13 214 3.2 9.7 0.00 0.00 0.00 37 1015.4
20260503181605 13 355 3.2 16.1 0.00 0.00 0.00 39 1015.5
20260503180056 13 274 6.4 22.5 0.00 0.00 0.00 41 1015.4
20260503174553 12 360 9.7 24.1 0.00 0.00 0.00 38 1015.6
20260503173050 12 314 1.6 17.7 0.00 0.00 0.00 38 1015.8
20260503171548 12 9 8.0 22.5 0.00 0.00 0.00 37 1015.9
20260503081524 4 15 0.0 6.4 0.00 0.00 0.00 73 1014.1
20260503071506 5 340 1.6 12.9 0.00 0.00 0.00 72 1013.7
20260503060116 5 9 1.6 9.7 0.00 0.03 0.00 73 1013.6
20260503054605 5 14 6.4 16.1 0.00 0.03 0.00 73 1013.8